Change the Weather History Date:

Thursday, January 9, 2014

  Actual Average (KSAT) Record (KSAT)
Temperature  
Mean Temperature 58 °F 51 °F  
Max Temperature 66 °F 62 °F 84 °F (1917)
Min Temperature 51 °F 40 °F 12 °F (1886)
Degree Days  
Heating Degree Days 6 14  
Month to date heating degree days 126  
Since 1 July heating degree days 728  
Cooling Degree Days 0 0  
Month to date cooling degree days 0  
Year to date cooling degree days 0  
Growing Degree Days 8 (Base 50)    
Moisture  
Dew Point 57 °F    
Average Humidity 97    
Maximum Humidity 100    
Minimum Humidity 78    
Precipitation  
Precipitation 0.00 in 0.05 in 1.82 in (1900)
Month to date precipitation 0.49  
Year to date precipitation 0.49  
Snow  
Snow 0.00 in - - ()
Month to date snowfall  
Since 1 July snowfall  
Snow Depth -    
Sea Level Pressure  
Sea Level Pressure 30.09 in    
Wind  
Wind Speed 4 mph (SSE)    
Max Wind Speed 15 mph    
Max Gust Speed -    
Visibility 5 miles    
Events Fog    
T = Trace of Precipitation, MM = Missing Value Source: NWS Daily Summary

Daily Weather History Graph

Daily Weather History Graph

Search for Another Location

Airport or City:

Trip Planner

Search our weather history database for the weather conditions in past years. The results will help you decide how hot, cold, wet, or windy it might be!

Date:

Astronomy

Jan. 09, 2014 Rise Set
Actual Time 7:28 AM CST 5:50 PM CST
Civil Twilight 7:02 AM CST 6:16 PM CST
Nautical Twilight 6:33 AM CST 6:45 PM CST
Astronomical Twilight 6:04 AM CST 7:14 PM CST
Moon 1:08 PM CST (1/9) 1:48 AM CST (1/9)
Length of Visible Light 11h 13m
Length of Day
10h 21m
Waxing Gibbous, 66% of the Moon is Illuminated
Jan 9
Waxing Gibbous
Jan 15
Full
Jan 23
Last Quarter
Jan 30
New
Feb 6
First Quarter

Hourly Weather History & Observations

Time (CST) Temp. Dew Point Humidity Pressure Visibility Wind Dir Wind Speed Gust Speed Precip Events Conditions
12:36 AM 51.8 °F 51.8 °F 100% 30.12 in 2.5 mi NNW 3.5 mph - N/A   Overcast
12:48 AM 51.8 °F 51.8 °F 100% 30.12 in 3.0 mi Calm Calm - N/A   Overcast
12:51 AM 52.0 °F 52.0 °F 100% 30.12 in 3.0 mi Calm Calm - N/A   Overcast
12:57 AM 51.8 °F 51.8 °F 100% 30.12 in 1.8 mi NNW 4.6 mph - N/A   Overcast
12:59 AM 51.8 °F 51.8 °F 100% 30.12 in 1.0 mi NW 4.6 mph - N/A   Overcast
1:07 AM 51.8 °F 51.8 °F 100% 30.12 in 0.5 mi Calm Calm - N/A Fog Fog
1:15 AM 51.8 °F 51.8 °F 100% 30.12 in 0.2 mi Calm Calm - N/A Fog Fog
1:51 AM 52.0 °F 52.0 °F 100% 30.12 in 0.2 mi Calm Calm - 0.00 in Fog Fog
2:51 AM 51.1 °F 51.1 °F 100% 30.10 in 0.2 mi Calm Calm - N/A Fog Fog
3:51 AM 51.1 °F 51.1 °F 100% 30.09 in 0.2 mi SSE 3.5 mph - N/A Fog Fog
4:51 AM 51.1 °F 51.1 °F 100% 30.09 in 0.2 mi Calm Calm - N/A Fog Fog
5:51 AM 52.0 °F 52.0 °F 100% 30.09 in 0.2 mi NW 4.6 mph - N/A Fog Fog
6:51 AM 52.0 °F 52.0 °F 100% 30.12 in 0.1 mi North 6.9 mph - N/A Fog Fog
7:51 AM 54.0 °F 54.0 °F 100% 30.13 in 0.1 mi Calm Calm - N/A Fog Fog
8:51 AM 55.0 °F 55.0 °F 100% 30.14 in 0.1 mi East 3.5 mph - N/A Fog Fog
9:36 AM 55.4 °F 55.4 °F 100% 30.16 in 0.5 mi SE 4.6 mph - N/A Fog Fog
9:51 AM 55.9 °F 55.9 °F 100% 30.16 in 1.0 mi SSE 4.6 mph - N/A   Overcast
9:58 AM 57.2 °F 57.2 °F 100% 30.16 in 3.0 mi SE 3.5 mph - N/A   Overcast
10:03 AM 57.2 °F 57.2 °F 100% 30.16 in 1.8 mi ESE 3.5 mph - N/A   Overcast
10:11 AM 55.4 °F 55.4 °F 100% 30.16 in 3.0 mi Calm Calm - N/A   Overcast
10:43 AM 55.4 °F 55.4 °F 100% 30.16 in 1.8 mi South 3.5 mph - N/A   Overcast
10:46 AM 57.2 °F 57.2 °F 100% 30.16 in 1.2 mi SSE 4.6 mph - N/A   Overcast
10:51 AM 57.0 °F 57.0 °F 100% 30.16 in 1.0 mi Calm Calm - N/A   Overcast
11:08 AM 57.2 °F 57.2 °F 100% 30.16 in 1.5 mi South 5.8 mph - N/A   Overcast
11:10 AM 57.2 °F 57.2 °F 100% 30.15 in 2.0 mi South 5.8 mph - N/A   Overcast
11:18 AM 57.2 °F 57.2 °F 100% 30.15 in 3.0 mi South 4.6 mph - N/A   Overcast
11:51 AM 57.0 °F 57.0 °F 100% 30.13 in 5.0 mi Calm Calm - N/A   Overcast
12:51 PM 59.0 °F 57.9 °F 96% 30.08 in 7.0 mi ESE 3.5 mph - N/A   Overcast
1:42 PM 62.6 °F 59.0 °F 88% 30.05 in 10.0 mi Variable 3.5 mph - N/A   Mostly Cloudy
1:51 PM 63.0 °F 59.0 °F 87% 30.04 in 10.0 mi Calm Calm - N/A   Mostly Cloudy
2:51 PM 64.0 °F 59.0 °F 84% 30.02 in 10.0 mi South 5.8 mph - N/A   Overcast
3:25 PM 64.4 °F 59.0 °F 83% 30.02 in 10.0 mi South 5.8 mph - N/A   Overcast
3:51 PM 66.0 °F 59.0 °F 78% 30.01 in 10.0 mi South 4.6 mph - N/A   Mostly Cloudy
4:07 PM 66.2 °F 60.8 °F 83% 30.02 in 10.0 mi South 4.6 mph - N/A   Mostly Cloudy
5:51 PM 64.0 °F 60.1 °F 87% 30.01 in 10.0 mi East 4.6 mph - N/A   Overcast
6:51 PM 63.0 °F 61.0 °F 93% 30.02 in 10.0 mi ESE 8.1 mph - N/A   Overcast
7:13 PM 62.6 °F 60.8 °F 94% 30.03 in 10.0 mi ESE 5.8 mph - N/A   Overcast
7:51 PM 63.0 °F 62.1 °F 97% 30.02 in 10.0 mi SE 8.1 mph - N/A   Overcast
8:51 PM 63.0 °F 62.1 °F 97% 30.02 in 10.0 mi South 12.7 mph - N/A   Overcast
9:35 PM 64.4 °F 62.6 °F 94% 30.03 in 10.0 mi South 15.0 mph - N/A   Overcast
9:51 PM 63.0 °F 62.1 °F 97% 30.02 in 10.0 mi South 12.7 mph - N/A   Overcast
10:51 PM 63.0 °F 62.1 °F 97% 30.01 in 10.0 mi South 11.5 mph - N/A   Overcast
11:14 PM 62.6 °F 62.6 °F 100% 30.01 in 10.0 mi South 13.8 mph - N/A   Overcast
11:51 PM 63.0 °F 62.1 °F 97% 29.99 in 10.0 mi South 12.7 mph - N/A   Overcast